User: anonymous   Login
Location: Unspecified
(0.0000°N, 0.0000°E)
Time: 01:55:06
(UTC+00:00)
Language:

STARLINK-4663 - Orbit

View from above orbital plane
View from above orbital plane
View from above satellite
View from above satellite

Ground track
Ground track

The orbit is defined by the following mean orbital elements,

1 53724U          26145.64192615 +.00000000 +00000-0 +39038-4 0 00003
2 53724  53.2127 268.4658 0001188  71.9008 288.2114 15.08834011    02
Epoch (UTC): 25 May 2026 15:24:22
Eccentricity: 0.0001188
inclination: 53.2127°
perigee height: 539 km
apogee height: 541 km
right ascension of ascending node: 268.4658°
argument of perigee: 71.9008°
revolutions per day: 15.08834011
mean anomaly at epoch: 288.2114°

The dashed part of the orbit path shows where the satellite is in the earth's shadow,  

DLR